| time (UTC) | temp F | wind direction | speed MPH | gust MPH | rain 1hr in | rain 24hr in | rain mn in | humidity % | barometer mb |
| 20260509233318 | 50 | 184 | 2.0 | 10.0 | 0.00 | 0.00 | 0.00 | 42 | 1013.2 |
| 20260509232820 | 50 | 165 | 4.0 | 7.0 | 0.00 | 0.00 | 0.00 | 42 | 1013.2 |
| 20260509232318 | 50 | 147 | 2.0 | 9.0 | 0.00 | 0.00 | 0.00 | 43 | 1013.3 |
| 20260509231818 | 49 | 233 | 3.0 | 9.0 | 0.00 | 0.00 | 0.00 | 43 | 1013.2 |
| 20260509231319 | 49 | 183 | 4.0 | 7.0 | 0.00 | 0.00 | 0.00 | 43 | 1013.1 |
| 20260509230816 | 49 | 126 | 3.0 | 7.0 | 0.00 | 0.00 | 0.00 | 42 | 1012.9 |
| 20260509230317 | 50 | 146 | 2.0 | 6.0 | 0.00 | 0.00 | 0.00 | 43 | 1012.9 |
| 20260509224316 | 50 | 157 | 3.0 | 9.0 | 0.00 | 0.00 | 0.00 | 44 | 1012.9 |
| 20260509223817 | 50 | 110 | 6.0 | 9.0 | 0.00 | 0.00 | 0.00 | 42 | 1013.0 |
| 20260509223316 | 51 | 180 | 2.0 | 6.0 | 0.00 | 0.00 | 0.00 | 43 | 1012.8 |
| 20260509222817 | 50 | 188 | 5.0 | 7.0 | 0.00 | 0.00 | 0.00 | 43 | 1012.7 |
| 20260509222316 | 50 | 186 | 7.0 | 7.0 | 0.00 | 0.00 | 0.00 | 42 | 1013.0 |
| 20260509221812 | 50 | 140 | 3.0 | 8.0 | 0.00 | 0.00 | 0.00 | 43 | 1012.8 |
| 20260509221312 | 50 | 176 | 4.0 | 8.0 | 0.00 | 0.00 | 0.00 | 43 | 1012.9 |
| 20260509220813 | 50 | 172 | 0.0 | 7.0 | 0.00 | 0.00 | 0.00 | 43 | 1012.6 |
| 20260509220314 | 51 | 178 | 3.0 | 8.0 | 0.00 | 0.00 | 0.00 | 43 | 1012.7 |
| 20260509215801 | 51 | 237 | 1.0 | 8.0 | 0.00 | 0.00 | 0.00 | 41 | 1012.7 |
| 20260509215306 | 52 | 123 | 3.0 | 6.0 | 0.00 | 0.00 | 0.00 | 41 | 1012.5 |
| 20260509214302 | 51 | 180 | 2.0 | 10.0 | 0.00 | 0.00 | 0.00 | 41 | 1012.3 |
| 20260509213800 | 51 | 150 | 3.0 | 13.0 | 0.00 | 0.00 | 0.00 | 42 | 1012.6 |
| 20260509213302 | 51 | 155 | 5.0 | 13.0 | 0.00 | 0.00 | 0.00 | 40 | 1012.6 |
| 20260509212802 | 52 | 184 | 4.0 | 11.0 | 0.00 | 0.00 | 0.00 | 40 | 1012.5 |
| 20260509212306 | 52 | 169 | 4.0 | 10.0 | 0.00 | 0.00 | 0.00 | 40 | 1012.5 |
| 20260509211804 | 50 | 228 | 2.0 | 9.0 | 0.00 | 0.00 | 0.00 | 43 | 1012.5 |
| 20260509211307 | 50 | 174 | 8.0 | 10.0 | 0.00 | 0.00 | 0.00 | 42 | 1012.2 |
| 20260509210805 | 50 | 157 | 1.0 | 10.0 | 0.00 | 0.00 | 0.00 | 44 | 1012.5 |
| 20260509210306 | 51 | 171 | 5.0 | 10.0 | 0.00 | 0.00 | 0.00 | 42 | 1012.5 |
| 20260509205801 | 51 | 202 | 5.0 | 11.0 | 0.00 | 0.00 | 0.00 | 42 | 1012.5 |
| 20260509205306 | 51 | 159 | 7.0 | 11.0 | 0.00 | 0.00 | 0.00 | 41 | 1012.2 |
| 20260509204805 | 53 | 206 | 4.0 | 9.0 | 0.00 | 0.00 | 0.00 | 41 | 1012.2 |
| 20260509204303 | 51 | 195 | 3.0 | 10.0 | 0.00 | 0.00 | 0.00 | 42 | 1012.1 |
| 20260509203801 | 51 | 182 | 3.0 | 10.0 | 0.00 | 0.00 | 0.00 | 43 | 1012.1 |
| 20260509203302 | 51 | 137 | 3.0 | 8.0 | 0.00 | 0.00 | 0.00 | 43 | 1012.1 |
| 20260509202801 | 51 | 148 | 3.0 | 12.0 | 0.00 | 0.00 | 0.00 | 43 | 1012.1 |
| 20260509202306 | 51 | 206 | 5.0 | 12.0 | 0.00 | 0.00 | 0.00 | 41 | 1012.0 |
| 20260509201802 | 52 | 207 | 3.0 | 11.0 | 0.00 | 0.00 | 0.00 | 42 | 1012.2 |
| 20260509201303 | 52 | 90 | 0.0 | 10.0 | 0.00 | 0.00 | 0.00 | 43 | 1012.0 |
| 20260509200801 | 53 | 180 | 2.0 | 11.0 | 0.00 | 0.00 | 0.00 | 42 | 1011.7 |
| 20260509200304 | 53 | 165 | 4.0 | 11.0 | 0.00 | 0.00 | 0.00 | 41 | 1011.9 |
| 20260509195306 | 54 | 178 | 4.0 | 9.0 | 0.00 | 0.00 | 0.00 | 38 | 1011.8 |
| 20260509194801 | 54 | 108 | 5.0 | 9.0 | 0.00 | 0.00 | 0.00 | 38 | 1011.7 |
| 20260509194302 | 53 | 180 | 2.0 | 9.0 | 0.00 | 0.00 | 0.00 | 40 | 1011.7 |
| 20260509193304 | 52 | 140 | 5.0 | 10.0 | 0.00 | 0.00 | 0.00 | 41 | 1011.5 |
| 20260509192255 | 54 | 188 | 3.0 | 13.0 | 0.00 | 0.00 | 0.00 | 40 | 1011.4 |
| 20260509191755 | 52 | 106 | 2.0 | 13.0 | 0.00 | 0.00 | 0.00 | 42 | 1011.7 |
| 20260509191255 | 55 | 123 | 0.0 | 9.0 | 0.00 | 0.00 | 0.00 | 39 | 1011.6 |
| 20260509190752 | 54 | 154 | 4.0 | 8.0 | 0.00 | 0.00 | 0.00 | 40 | 1011.5 |
| 20260509190252 | 54 | 193 | 7.0 | 8.0 | 0.00 | 0.00 | 0.00 | 39 | 1011.4 |
| 20260509185751 | 54 | 165 | 3.0 | 7.0 | 0.00 | 0.00 | 0.00 | 40 | 1011.4 |
| 20260509185247 | 53 | 180 | 2.0 | 10.0 | 0.00 | 0.00 | 0.00 | 42 | 1011.4 |
| 20260509184743 | 50 | 245 | 2.0 | 10.0 | 0.00 | 0.00 | 0.00 | 44 | 1011.2 |
| 20260509183740 | 52 | 180 | 3.0 | 10.0 | 0.00 | 0.00 | 0.00 | 41 | 1011.3 |
| 20260509183242 | 51 | 129 | 3.0 | 9.0 | 0.00 | 0.00 | 0.00 | 43 | 1011.2 |
| 20260509182733 | 52 | 72 | 2.0 | 9.0 | 0.00 | 0.00 | 0.00 | 44 | 1011.2 |
| 20260509182231 | 51 | 157 | 3.0 | 10.0 | 0.00 | 0.00 | 0.00 | 43 | 1011.5 |
| 20260509181730 | 52 | 129 | 3.0 | 10.0 | 0.00 | 0.00 | 0.00 | 43 | 1011.2 |
| 20260509180730 | 50 | 182 | 3.0 | 9.0 | 0.00 | 0.00 | 0.00 | 44 | 1011.0 |
| 20260509180232 | 51 | 138 | 5.0 | 8.0 | 0.00 | 0.00 | 0.00 | 42 | 1011.0 |
| 20260509175728 | 51 | 144 | 4.0 | 8.0 | 0.00 | 0.00 | 0.00 | 42 | 1011.2 |
| 20260509175230 | 53 | 162 | 3.0 | 9.0 | 0.00 | 0.00 | 0.00 | 43 | 1011.2 |
| 20260509174732 | 51 | 168 | 3.0 | 10.0 | 0.00 | 0.00 | 0.00 | 42 | 1011.2 |
| 20260509174233 | 50 | 191 | 1.0 | 10.0 | 0.00 | 0.00 | 0.00 | 43 | 1010.7 |
| 20260509173732 | 50 | 171 | 5.0 | 10.0 | 0.00 | 0.00 | 0.00 | 44 | 1011.0 |
| 20260509173232 | 50 | 187 | 5.0 | 8.0 | 0.00 | 0.00 | 0.00 | 43 | 1010.7 |
| 20260509172732 | 51 | 240 | 2.0 | 8.0 | 0.00 | 0.00 | 0.00 | 44 | 1011.2 |
| 20260509172225 | 51 | 110 | 2.0 | 7.0 | 0.00 | 0.00 | 0.00 | 43 | 1010.9 |
| 20260509171716 | 51 | 126 | 3.0 | 10.0 | 0.00 | 0.00 | 0.00 | 43 | 1010.8 |
| 20260509170713 | 50 | 168 | 5.0 | 8.0 | 0.00 | 0.00 | 0.00 | 43 | 1010.8 |
| 20260509170215 | 50 | 180 | 3.0 | 13.0 | 0.00 | 0.00 | 0.00 | 43 | 1010.7 |
| 20260509165713 | 48 | 166 | 7.0 | 13.0 | 0.00 | 0.00 | 0.00 | 43 | 1010.8 |
| 20260509165215 | 51 | 164 | 3.0 | 7.0 | 0.00 | 0.00 | 0.00 | 42 | 1010.9 |
| 20260509164713 | 50 | 160 | 3.0 | 9.0 | 0.00 | 0.00 | 0.00 | 41 | 1010.7 |
| 20260509163713 | 49 | 208 | 5.0 | 9.0 | 0.00 | 0.00 | 0.00 | 44 | 1011.0 |
| 20260509163213 | 49 | 83 | 4.0 | 9.0 | 0.00 | 0.00 | 0.00 | 45 | 1010.8 |
| 20260509161713 | 49 | 30 | 2.0 | 7.0 | 0.00 | 0.00 | 0.00 | 45 | 1010.6 |
| 20260509160713 | 49 | 139 | 4.0 | 8.0 | 0.00 | 0.00 | 0.00 | 45 | 1010.7 |
| 20260509160213 | 49 | 180 | 2.0 | 9.0 | 0.00 | 0.00 | 0.00 | 46 | 1010.6 |
| 20260509155717 | 48 | 127 | 2.0 | 9.0 | 0.00 | 0.00 | 0.00 | 47 | 1010.3 |
| 20260509155213 | 47 | 157 | 6.0 | 9.0 | 0.00 | 0.00 | 0.00 | 45 | 1010.6 |
| 20260509154711 | 48 | 95 | 4.0 | 13.0 | 0.00 | 0.00 | 0.00 | 45 | 1010.2 |
| 20260509154211 | 47 | 135 | 4.0 | 13.0 | 0.00 | 0.00 | 0.00 | 48 | 1010.3 |
| 20260509153710 | 48 | 146 | 4.0 | 10.0 | 0.00 | 0.00 | 0.00 | 47 | 1010.3 |
| 20260509153210 | 47 | 180 | 4.0 | 10.0 | 0.00 | 0.00 | 0.00 | 47 | 1010.2 |
| 20260509152712 | 46 | 192 | 5.0 | 9.0 | 0.00 | 0.00 | 0.00 | 48 | 1010.3 |
| 20260509152212 | 46 | 148 | 0.0 | 8.0 | 0.00 | 0.00 | 0.00 | 48 | 1010.4 |
| 20260509151710 | 46 | 145 | 8.0 | 8.0 | 0.00 | 0.00 | 0.00 | 48 | 1010.2 |
| 20260509151212 | 47 | 203 | 3.0 | 8.0 | 0.00 | 0.00 | 0.00 | 48 | 1010.1 |
| 20260509150710 | 46 | 123 | 4.0 | 8.0 | 0.00 | 0.00 | 0.00 | 49 | 1010.3 |
| 20260509150212 | 46 | 106 | 2.0 | 9.0 | 0.00 | 0.00 | 0.00 | 48 | 1010.2 |
| 20260509145708 | 46 | 159 | 3.0 | 9.0 | 0.00 | 0.00 | 0.00 | 48 | 1010.1 |
| 20260509145209 | 46 | 168 | 3.0 | 9.0 | 0.00 | 0.00 | 0.00 | 48 | 1010.1 |
| 20260509144704 | 46 | 90 | 0.0 | 8.0 | 0.00 | 0.00 | 0.00 | 49 | 1010.0 |
| 20260509144204 | 45 | 210 | 2.0 | 8.0 | 0.00 | 0.00 | 0.00 | 48 | 1010.3 |
| 20260509143704 | 46 | 158 | 4.0 | 13.0 | 0.00 | 0.00 | 0.00 | 48 | 1010.0 |
| 20260509143205 | 44 | 127 | 2.0 | 13.0 | 0.00 | 0.00 | 0.00 | 49 | 1010.1 |
| 20260509142203 | 45 | 180 | 2.0 | 9.0 | 0.00 | 0.00 | 0.00 | 49 | 1010.0 |
| 20260509141703 | 45 | 127 | 3.0 | 8.0 | 0.00 | 0.00 | 0.00 | 49 | 1009.5 |
| 20260509141152 | 46 | 75 | 2.0 | 7.0 | 0.00 | 0.00 | 0.00 | 52 | 1009.9 |
| 20260509140644 | 45 | 154 | 0.0 | 10.0 | 0.00 | 0.00 | 0.00 | 52 | 1009.6 |
| 20260509140144 | 44 | 197 | 2.0 | 10.0 | 0.00 | 0.00 | 0.00 | 53 | 1009.6 |
| 20260509135641 | 44 | 176 | 2.0 | 10.0 | 0.00 | 0.00 | 0.00 | 54 | 1009.8 |
| 20260509135140 | 43 | 140 | 3.0 | 11.0 | 0.00 | 0.00 | 0.00 | 55 | 1009.6 |
| 20260509134631 | 43 | 185 | 3.0 | 11.0 | 0.00 | 0.00 | 0.00 | 55 | 1009.3 |
| 20260509134130 | 44 | 148 | 3.0 | 6.0 | 0.00 | 0.00 | 0.00 | 58 | 1009.3 |
| 20260509133629 | 43 | 155 | 3.0 | 7.0 | 0.00 | 0.00 | 0.00 | 58 | 1009.4 |
| 20260509133130 | 42 | 178 | 3.0 | 7.0 | 0.00 | 0.00 | 0.00 | 57 | 1009.3 |
| 20260509132629 | 42 | 108 | 5.0 | 7.0 | 0.00 | 0.00 | 0.00 | 57 | 1009.2 |
| 20260509132130 | 42 | 157 | 1.0 | 6.0 | 0.00 | 0.00 | 0.00 | 58 | 1009.2 |
| 20260509131130 | 41 | 166 | 3.0 | 7.0 | 0.00 | 0.00 | 0.00 | 60 | 1009.1 |
| 20260509125629 | 40 | 112 | 2.0 | 7.0 | 0.00 | 0.00 | 0.00 | 62 | 1008.5 |
| 20260509125130 | 40 | 123 | 1.0 | 5.0 | 0.00 | 0.00 | 0.00 | 62 | 1008.5 |
| 20260509124130 | 39 | 161 | 3.0 | 9.0 | 0.00 | 0.00 | 0.00 | 62 | 1008.5 |
| 20260509123630 | 39 | 150 | 2.0 | 8.0 | 0.00 | 0.00 | 0.00 | 63 | 1008.3 |
| 20260509123129 | 39 | 158 | 6.0 | 8.0 | 0.00 | 0.00 | 0.00 | 62 | 1008.3 |
| 20260509122629 | 39 | 127 | 5.0 | 7.0 | 0.00 | 0.00 | 0.00 | 62 | 1008.3 |
| 20260509122130 | 39 | 90 | 1.0 | 6.0 | 0.00 | 0.00 | 0.00 | 62 | 1007.8 |
| 20260509121628 | 38 | 96 | 2.0 | 6.0 | 0.00 | 0.00 | 0.00 | 62 | 1007.9 |
| 20260509121132 | 38 | 176 | 0.0 | 5.0 | 0.00 | 0.00 | 0.00 | 61 | 1007.9 |
| 20260509120630 | 38 | 124 | 2.0 | 4.0 | 0.00 | 0.00 | 0.00 | 62 | 1008.0 |
| 20260509120130 | 39 | 182 | 3.0 | 5.0 | 0.00 | 0.00 | 0.00 | 62 | 1007.9 |
| 20260509115630 | 38 | 150 | 2.0 | 6.0 | 0.00 | 0.00 | 0.00 | 61 | 1007.7 |
| 20260509114624 | 38 | 177 | 2.0 | 6.0 | 0.00 | 0.00 | 0.00 | 62 | 1007.5 |
| 20260509113621 | 38 | 90 | 0.0 | 6.0 | 0.00 | 0.00 | 0.00 | 62 | 1007.3 |
| 20260509113119 | 38 | 121 | 2.0 | 5.0 | 0.00 | 0.00 | 0.00 | 60 | 1007.2 |
| 20260509112121 | 38 | 161 | 2.0 | 6.0 | 0.00 | 0.00 | 0.00 | 60 | 1006.8 |
| 20260509111619 | 38 | 142 | 2.0 | 5.0 | 0.00 | 0.00 | 0.00 | 61 | 1006.7 |
| 20260509111115 | 38 | 184 | 0.0 | 5.0 | 0.00 | 0.00 | 0.00 | 59 | 1006.8 |
| 20260509110614 | 38 | 165 | 0.0 | 3.0 | 0.00 | 0.00 | 0.00 | 60 | 1006.7 |
| 20260509110115 | 38 | 106 | 0.0 | 3.0 | 0.00 | 0.00 | 0.00 | 59 | 1006.5 |
| 20260509105114 | 39 | 66 | 0.0 | 4.0 | 0.00 | 0.00 | 0.00 | 60 | 1006.3 |
| 20260509103610 | 39 | 180 | 1.0 | 4.0 | 0.00 | 0.00 | 0.00 | 59 | 1006.4 |
| 20260509103132 | 40 | 157 | 1.0 | 4.0 | 0.00 | 0.00 | 0.00 | 58 | 1006.5 |
| 20260509102608 | 40 | 132 | 2.0 | 4.0 | 0.00 | 0.00 | 0.00 | 57 | 1006.4 |
| 20260509102109 | 40 | 152 | 2.0 | 4.0 | 0.00 | 0.00 | 0.00 | 58 | 1006.4 |
| 20260509101609 | 41 | 185 | 2.0 | 4.0 | 0.00 | 0.00 | 0.00 | 57 | 1006.1 |
| 20260509101103 | 41 | 212 | 3.0 | 8.0 | 0.00 | 0.00 | 0.00 | 57 | 1006.3 |
| 20260509095601 | 42 | 206 | 1.0 | 4.0 | 0.00 | 0.00 | 0.00 | 59 | 1005.9 |
| 20260509095101 | 42 | 157 | 1.0 | 5.0 | 0.00 | 0.00 | 0.00 | 59 | 1006.0 |
| 20260509094603 | 42 | 188 | 2.0 | 5.0 | 0.00 | 0.00 | 0.00 | 59 | 1006.1 |
| 20260509094102 | 42 | 180 | 1.0 | 5.0 | 0.00 | 0.00 | 0.00 | 59 | 1005.8 |
| 20260509093602 | 42 | 106 | 0.0 | 6.0 | 0.00 | 0.00 | 0.00 | 59 | 1005.7 |
| 20260509092602 | 42 | 166 | 0.0 | 5.0 | 0.00 | 0.00 | 0.00 | 60 | 1005.6 |
| 20260509091600 | 43 | 101 | 2.0 | 6.0 | 0.00 | 0.00 | 0.00 | 61 | 1005.3 |
| 20260509091100 | 43 | 157 | 0.0 | 5.0 | 0.00 | 0.00 | 0.00 | 62 | 1005.4 |
| 20260509090602 | 43 | 181 | 4.0 | 5.0 | 0.00 | 0.00 | 0.00 | 66 | 1005.2 |
| 20260509090101 | 42 | 192 | 2.0 | 3.0 | 0.00 | 0.00 | 0.00 | 71 | 1005.0 |
| 20260509085601 | 43 | 148 | 2.0 | 4.0 | 0.00 | 0.00 | 0.00 | 74 | 1005.0 |
| 20260509085054 | 43 | 201 | 2.0 | 4.0 | 0.00 | 0.00 | 0.00 | 74 | 1005.0 |
| 20260509084552 | 42 | 117 | 2.0 | 5.0 | 0.00 | 0.00 | 0.00 | 76 | 1004.8 |
| 20260509084051 | 43 | 168 | 2.0 | 5.0 | 0.00 | 0.00 | 0.00 | 75 | 1004.7 |
| 20260509083550 | 43 | 180 | 0.0 | 4.0 | 0.00 | 0.00 | 0.00 | 76 | 1004.8 |
| 20260509083059 | 43 | 172 | 2.0 | 5.0 | 0.00 | 0.00 | 0.00 | 76 | 1004.6 |
| 20260509082550 | 43 | 117 | 1.0 | 5.0 | 0.00 | 0.00 | 0.00 | 77 | 1004.8 |
| 20260509082051 | 43 | 144 | 3.0 | 3.0 | 0.00 | 0.00 | 0.00 | 78 | 1004.3 |
| 20260509081548 | 42 | 140 | 0.0 | 3.0 | 0.00 | 0.00 | 0.00 | 79 | 1004.4 |
| 20260509081049 | 42 | 146 | 2.0 | 4.0 | 0.00 | 0.00 | 0.00 | 80 | 1004.5 |
| 20260509080549 | 42 | 157 | 1.0 | 4.0 | 0.00 | 0.00 | 0.00 | 79 | 1004.4 |
| 20260509080057 | 43 | 102 | 2.0 | 3.0 | 0.00 | 0.00 | 0.00 | 80 | 1004.5 |
| 20260509075048 | 43 | 97 | 0.0 | 4.0 | 0.00 | 0.00 | 0.00 | 79 | 1003.9 |
| 20260509074548 | 43 | 97 | 1.0 | 4.0 | 0.00 | 0.00 | 0.00 | 78 | 1004.0 |
| 20260509074045 | 43 | 90 | 1.0 | 4.0 | 0.00 | 0.00 | 0.00 | 79 | 1004.2 |
| 20260509073044 | 43 | 126 | 1.0 | 4.0 | 0.00 | 0.00 | 0.00 | 78 | 1004.2 |
| 20260509072537 | 43 | 112 | 3.0 | 4.0 | 0.00 | 0.00 | 0.00 | 77 | 1004.3 |
| 20260509072035 | 43 | 97 | 1.0 | 3.0 | 0.00 | 0.00 | 0.00 | 77 | 1004.1 |
| 20260509071535 | 43 | 117 | 0.0 | 5.0 | 0.00 | 0.00 | 0.00 | 76 | 1004.1 |
| 20260509071036 | 43 | 117 | 1.0 | 5.0 | 0.00 | 0.00 | 0.00 | 76 | 1004.4 |
| 20260509070538 | 43 | 74 | 0.0 | 3.0 | 0.00 | 0.00 | 0.00 | 77 | 1004.1 |
| 20260509065536 | 43 | 117 | 2.0 | 2.0 | 0.00 | 0.00 | 0.00 | 77 | 1004.2 |
| 20260509065037 | 44 | 66 | 0.0 | 2.0 | 0.00 | 0.00 | 0.00 | 75 | 1004.0 |
| 20260509064535 | 44 | 83 | 1.0 | 2.0 | 0.00 | 0.00 | 0.00 | 76 | 1004.3 |
| 20260509063537 | 44 | 90 | 0.0 | 3.0 | 0.00 | 0.00 | 0.00 | 75 | 1004.3 |
| 20260509063036 | 44 | 90 | 0.0 | 3.0 | 0.00 | 0.00 | 0.00 | 75 | 1004.1 |
| 20260509062535 | 44 | 90 | 1.0 | 2.0 | 0.00 | 0.00 | 0.00 | 75 | 1004.1 |
| 20260509062035 | 44 | 103 | 1.0 | 2.0 | 0.00 | 0.00 | 0.00 | 74 | 1004.2 |
| 20260509061534 | 44 | 82 | 1.0 | 2.0 | 0.00 | 0.00 | 0.00 | 73 | 1004.1 |
| 20260509061035 | 44 | 74 | 0.0 | 2.0 | 0.00 | 0.00 | 0.00 | 74 | 1004.3 |
| 20260509060529 | 44 | 151 | 0.0 | 2.0 | 0.00 | 0.00 | 0.00 | 73 | 1004.2 |
| 20260509060029 | 44 | 131 | 0.0 | 2.0 | 0.00 | 0.00 | 0.00 | 75 | 1004.3 |
| 20260509055530 | 44 | 83 | 0.0 | 2.0 | 0.00 | 0.00 | 0.00 | 76 | 1004.2 |
| 20260509055029 | 44 | 74 | 0.0 | 2.0 | 0.00 | 0.00 | 0.00 | 75 | 1004.3 |
| 20260509054029 | 44 | 90 | 2.0 | 4.0 | 0.00 | 0.00 | 0.00 | 74 | 1004.3 |
| 20260509053530 | 45 | 157 | 0.0 | 4.0 | 0.00 | 0.00 | 0.00 | 73 | 1004.2 |
| 20260509053029 | 45 | 124 | 2.0 | 4.0 | 0.00 | 0.00 | 0.00 | 71 | 1004.4 |
| 20260509052531 | 45 | 90 | 1.0 | 4.0 | 0.00 | 0.00 | 0.00 | 71 | 1004.6 |
| 20260509052029 | 45 | 150 | 2.0 | 4.0 | 0.00 | 0.00 | 0.00 | 72 | 1004.6 |
| 20260509051029 | 45 | 80 | 2.0 | 5.0 | 0.00 | 0.00 | 0.00 | 72 | 1004.4 |
| 20260509050529 | 45 | 97 | 2.0 | 7.0 | 0.00 | 0.00 | 0.00 | 72 | 1004.4 |
| 20260509050030 | 46 | 151 | 3.0 | 10.0 | 0.00 | 0.00 | 0.00 | 73 | 1004.4 |
| 20260509045521 | 46 | 105 | 2.0 | 10.0 | 0.00 | 0.00 | 0.00 | 72 | 1004.5 |
| 20260509044520 | 47 | 162 | 2.0 | 6.0 | 0.00 | 0.00 | 0.00 | 66 | 1004.7 |
| 20260509044017 | 48 | 135 | 2.0 | 6.0 | 0.00 | 0.00 | 0.00 | 64 | 1004.7 |
| 20260509043518 | 48 | 119 | 3.0 | 6.0 | 0.00 | 0.00 | 0.00 | 63 | 1004.8 |
| 20260509043017 | 48 | 133 | 2.0 | 5.0 | 0.00 | 0.00 | 0.00 | 60 | 1004.7 |
| 20260509042517 | 49 | 159 | 2.0 | 7.0 | 0.00 | 0.00 | 0.00 | 59 | 1004.9 |
| 20260509041518 | 50 | 76 | 5.0 | 8.0 | 0.00 | 0.00 | 0.00 | 55 | 1004.8 |
| 20260509040516 | 50 | 154 | 3.0 | 7.0 | 0.00 | 0.00 | 0.00 | 52 | 1004.5 |
| 20260509040015 | 50 | 130 | 2.0 | 8.0 | 0.00 | 0.00 | 0.00 | 53 | 1004.3 |
| 20260509035511 | 50 | 133 | 3.0 | 8.0 | 0.00 | 0.00 | 0.00 | 53 | 1004.6 |
| 20260509035011 | 50 | 117 | 0.0 | 5.0 | 0.00 | 0.00 | 0.00 | 53 | 1004.7 |
| 20260509034010 | 49 | 242 | 3.0 | 6.0 | 0.00 | 0.00 | 0.00 | 51 | 1004.3 |
| 20260509033511 | 50 | 84 | 0.0 | 4.0 | 0.00 | 0.00 | 0.00 | 52 | 1004.3 |
| 20260509033009 | 50 | 98 | 0.0 | 3.0 | 0.00 | 0.00 | 0.00 | 48 | 1004.1 |
| 20260509032009 | 50 | 172 | 0.0 | 2.0 | 0.00 | 0.00 | 0.00 | 45 | 1004.0 |
| 20260509031509 | 50 | 203 | 1.0 | 2.0 | 0.00 | 0.00 | 0.00 | 45 | 1003.4 |
| 20260509031011 | 49 | 180 | 1.0 | 1.0 | 0.00 | 0.00 | 0.00 | 47 | 1003.3 |
| 20260509030510 | 47 | 154 | 0.0 | 2.0 | 0.00 | 0.00 | 0.00 | 53 | 1003.4 |
| 20260509030010 | 47 | 154 | 0.0 | 2.0 | 0.00 | 0.00 | 0.00 | 52 | 1003.2 |
| 20260509025509 | 47 | 90 | 0.0 | 1.0 | 0.00 | 0.00 | 0.00 | 54 | 1003.2 |
| 20260509025009 | 47 | 81 | 0.0 | 0.0 | 0.00 | 0.00 | 0.00 | 53 | 1003.0 |
| 20260509024010 | 47 | 81 | 0.0 | 0.0 | 0.00 | 0.00 | 0.00 | 48 | 1002.9 |
| 20260509023012 | 47 | 81 | 0.0 | 0.0 | 0.00 | 0.00 | 0.00 | 49 | 1002.9 |
| 20260509022011 | 47 | 81 | 0.0 | 1.0 | 0.00 | 0.00 | 0.00 | 49 | 1002.9 |
| 20260509021012 | 48 | 99 | 0.0 | 1.0 | 0.00 | 0.00 | 0.00 | 49 | 1002.7 |
| 20260509020510 | 48 | 81 | 0.0 | 0.0 | 0.00 | 0.00 | 0.00 | 48 | 1002.5 |
| 20260509020003 | 48 | 172 | 0.0 | 0.0 | 0.00 | 0.00 | 0.00 | 46 | 1002.4 |
| 20260509015503 | 49 | 172 | 0.0 | 0.0 | 0.00 | 0.00 | 0.00 | 46 | 1002.5 |
| 20260509015001 | 49 | 172 | 0.0 | 0.0 | 0.00 | 0.00 | 0.00 | 46 | 1002.6 |
| 20260509014504 | 50 | 172 | 0.0 | 0.0 | 0.00 | 0.00 | 0.00 | 45 | 1002.8 |
| 20260509014001 | 50 | 172 | 0.0 | 0.0 | 0.00 | 0.00 | 0.00 | 44 | 1002.6 |
| 20260509013500 | 51 | 172 | 0.0 | 0.0 | 0.00 | 0.00 | 0.00 | 43 | 1002.6 |
| 20260509013001 | 52 | 172 | 0.0 | 0.0 | 0.00 | 0.00 | 0.00 | 42 | 1002.7 |
| 20260509012501 | 53 | 172 | 0.0 | 0.0 | 0.00 | 0.00 | 0.00 | 41 | 1002.7 |
| 20260509012003 | 53 | 172 | 0.0 | 1.0 | 0.00 | 0.00 | 0.00 | 40 | 1002.6 |
| 20260509011501 | 54 | 172 | 0.0 | 2.0 | 0.00 | 0.00 | 0.00 | 38 | 1002.8 |
| 20260509011001 | 55 | 165 | 1.0 | 2.0 | 0.00 | 0.00 | 0.00 | 38 | 1002.7 |
| 20260509010502 | 55 | 90 | 1.0 | 3.0 | 0.00 | 0.00 | 0.00 | 38 | 1002.8 |
| 20260509010001 | 55 | 165 | 0.0 | 7.0 | 0.00 | 0.00 | 0.00 | 37 | 1002.7 |
| 20260509005501 | 56 | 180 | 2.0 | 7.0 | 0.00 | 0.00 | 0.00 | 36 | 1002.8 |
| 20260509005003 | 56 | 138 | 3.0 | 7.0 | 0.00 | 0.00 | 0.00 | 35 | 1002.7 |
| 20260509004501 | 57 | 102 | 2.0 | 5.0 | 0.00 | 0.00 | 0.00 | 35 | 1002.8 |
| 20260509004003 | 58 | 102 | 2.0 | 5.0 | 0.00 | 0.00 | 0.00 | 34 | 1002.8 |
| 20260509003001 | 58 | 132 | 4.0 | 6.0 | 0.00 | 0.00 | 0.00 | 34 | 1002.9 |
| 20260509002525 | 59 | 165 | 0.0 | 6.0 | 0.00 | 0.00 | 0.00 | 34 | 1003.0 |
| 20260509002002 | 59 | 150 | 3.0 | 6.0 | 0.00 | 0.00 | 0.00 | 33 | 1002.9 |
| 20260509001501 | 59 | 180 | 1.0 | 7.0 | 0.00 | 0.00 | 0.00 | 33 | 1003.1 |
| 20260509001002 | 59 | 201 | 2.0 | 7.0 | 0.00 | 0.00 | 0.00 | 32 | 1002.9 |
| 20260509000500 | 59 | 96 | 3.0 | 9.0 | 0.00 | 0.00 | 0.00 | 32 | 1002.9 |
| 20260509000001 | 59 | 188 | 2.0 | 9.0 | 0.00 | 0.00 | 0.00 | 33 | 1003.0 |
| 20260508235504 | 60 | 139 | 2.0 | 7.0 | 0.00 | 0.00 | 0.00 | 32 | 1003.0 |
| 20260508234503 | 60 | 217 | 2.0 | 7.0 | 0.00 | 0.00 | 0.00 | 32 | 1003.1 |